Home   Weather   Montreal   Past weeks

Flag for Canada Past Weather in Montreal, Quebec, Canada — Yesterday and Last 2 Weeks

Now
30 °F

Overcast.


Feels Like: 17 °F
Forecast: N/A
Wind: 21 mph from Northeast

Location: Montreal - Pierre Elliot Trudeau International Aiport

Current Time: Jan 23, 2017 at 6:02:42 pm

Latest Report: Jan 23, 2017 at 5:00 pm


Visibility: 15 mi

Pressure: 30.03 "Hg

Humidity: 69%

Dew Point: 21 °F

Location of MontrealLocation

Past Weather in Montreal — Graph

°F

Montreal Temperature Yesterday

Maximum temperature yesterday: 36 °F (at 11:00 am)
Minimum temperature yesterday: 28 °F (at 10:30 pm)
Average temperature yesterday: 33 °F

High & Low Weather Summary for the Past Weeks

 TemperatureHumidityPressure
High41 °F (Jan 11, 6:00 am)100% (Jan 12, 8:00 am)30.81 "Hg (Jan 12, 8:00 am)
Low-6 °F (Jan 9, 5:00 am)37% (Jan 13, 5:00 pm)29.62 "Hg (Jan 11, 4:00 am)
Average27 °F77%30.12 "Hg
* Reported Jan 8 4:00 pm — Jan 23 4:00 pm, Montreal, Weather by CustomWeather, © 2017

Note: Actual official high and low records may vary slightly from our data, if they occured in-between our weather recording intervals... More about our weather records

Advertising

Montreal Weather History for the Previous 24 Hours

Scroll right to see more
 ConditionsComfort  
Time TempWeatherWind HumidityBarometerVisibility
4:00 pm
Mon, Jan 23
30 °FOvercast.23 mph69%30.02 "Hg15 mi
3:00 pm32 °FOvercast.17 mph64%30.02 "Hg15 mi
2:00 pm32 °FOvercast.22 mph64%30.03 "Hg15 mi
1:00 pm32 °FOvercast.16 mph64%30.05 "Hg15 mi
12:00 pm30 °FOvercast.22 mph69%30.03 "Hg15 mi
11:35 am30 °FMostly cloudy.17 mph69%30.04 "Hg15 mi
11:00 am30 °FLight snow. Overcast.21 mph69%30.05 "Hg15 mi
10:00 am28 °FLight snow. Overcast.18 mph80%30.07 "Hg8 mi
9:00 am28 °FLight snow. Overcast.17 mph74%30.07 "Hg12 mi
8:47 am28 °FLight snow. Overcast.20 mph74%30.07 "Hg15 mi
8:00 am28 °FMostly cloudy.18 mph74%30.05 "Hg15 mi
7:36 am28 °FMostly cloudy.20 mph74%30.03 "Hg15 mi
7:00 am28 °FLight snow. Mostly cloudy.17 mph80%30.04 "Hg15 mi
6:00 am28 °FLight snow. Mostly cloudy.22 mph74%30.04 "Hg15 mi
5:00 am28 °FLight snow. Mostly cloudy.22 mph80%30.04 "Hg10 mi
4:00 am28 °FLight snow. Mostly cloudy.21 mph80%30.03 "Hg12 mi
3:00 am28 °FLight snow. Overcast.20 mph74%30.02 "Hg12 mi
2:00 am28 °FLight snow. Overcast.23 mph74%30.01 "Hg12 mi
1:23 am28 °FLight snow. Overcast.23 mph74%30.00 "Hg15 mi
1:00 am28 °FOvercast.24 mph74%30.00 "Hg15 mi
12:00 am28 °FLight snow. Overcast.21 mph80%30.00 "Hg5 mi
11:00 pm
Sun, Jan 22
28 °FLight snow. Overcast.22 mph74%30.01 "Hg4 mi
10:30 pm28 °FLight snow. Mostly cloudy.24 mph74%30.01 "Hg15 mi
10:00 pm30 °FMostly cloudy.26 mph69%29.99 "Hg15 mi
9:00 pm30 °FLight snow. Passing clouds.21 mph75%29.96 "Hg15 mi
8:37 pm32 °FLight snow. Overcast.23 mph75%29.96 "Hg15 mi
8:00 pm32 °FOvercast.21 mph75%29.98 "Hg15 mi
7:00 pm34 °FOvercast.21 mph75%29.97 "Hg15 mi
6:00 pm34 °FOvercast.21 mph75%29.94 "Hg15 mi
Weather by CustomWeather, © 2017

See weather overviewHow to use our weather pages